Dewpoint
24 24 28 27 28 30 29 32 29 29 32 34 37 41 42 43 46 45 42 42 43 44 46 47 49 51 55 54 54 54 55 54 53 53 54 53 52 51 50 49 48 48 49 49
22 21 27 23 22 20 21 22 25 33 32 36 39 44 44 45 45 42 41 40 40 40 42 44 44 45 46 47 49 55 54 53 54 54 54 54 53 52 52 51 50 49 48 48
16 21 20 9 17 30 31 32 33 31 34 36 39 42 43 44 43 41 40 39 38 38 38 39 42 42 42 43 45 46 47 47 48 52 54 54 55 54 53 52 52 51 50 49
20 21 8 7 16 30 28 32 35 34 35 40 39 39 39 41 40 38 38 37 36 36 36 35 38 39 40 40 40 40 40 40 41 43 45 46 50 53 54 55 54 53 52 51
17 17 15 16 26 30 29 29 39 40 40 40 40 39 36 38 37 37 36 36 35 34 33 33 33 37 38 37 37 36 36 35 36 38 39 40 41 42 44 45 52 55 55 54
21 17 11 12 32 34 33 27 37 40 40 41 39 34 32 35 35 34 35 34 32 31 31 31 31 35 35 35 35 34 32 32 32 33 34 34 36 37 39 42 42 43 38 34
23 20 22 28 33 34 19 27 37 39 41 39 34 33 33 32 31 31 30 30 31 29 29 29 30 32 32 33 33 31 30 30 30 31 31 32 33 34 35 36 36 33 31 30
22 21 18 35 34 28 34 33 35 36 36 35 34 32 31 31 29 28 27 27 27 28 27 27 28 30 30 30 33 31 29 29 29 29 30 30 30 31 31 33 32 31 30 29
26 24 35 36 35 35 32 31 32 33 34 33 31 30 29 26 25 25 25 25 25 26 26 26 27 28 28 29 31 30 28 27 27 28 28 28 28 28 29 29 29 28 27 26
29 33 34 35 35 35 33 31 30 31 31 29 27 26 24 23 23 22 22 23 24 24 24 24 25 26 28 28 30 29 28 26 26 26 26 27 28 27 26 26 26 25 24 24
30 30 32 31 32 31 31 31 28 27 27 27 26 25 24 22 21 21 21 22 22 23 23 23 24 25 27 27 28 27 27 26 26 26 24 23 24 25 26 27 27 26 26 26
24 28 29 28 30 31 28 27 26 25 21 20 21 21 20 20 20 19 19 19 20 20 21 21 21 22 24 27 27 26 26 25 26 25 25 23 21 20 23 25 26 26 26 25
26 30 30 30 30 30 27 25 21 19 19 18 18 19 19 18 18 17 17 17 17 18 19 19 19 20 21 23 25 24 24 24 24 23 22 21 19 18 16 17 19 22 23 24
28 30 28 26 24 25 25 23 21 19 18 18 17 17 16 15 14 14 15 16 16 16 16 17 17 18 20 21 21 21 20 21 20 20 20 18 16 15 14 13 13 13 16 19
24 24 27 23 20 20 20 21 20 19 17 16 15 14 13 13 12 13 13 14 13 13 14 15 16 17 19 20 19 19 19 19 18 18 17 16 15 14 14 13 12 11 12 12
20 19 23 20 18 17 17 17 17 16 18 15 14 13 13 12 12 12 12 12 11 10 12 13 14 16 18 18 17 17 17 17 17 16 15 14 14 13 11 10 9 8 8 8
17 17 18 19 17 16 15 15 15 15 14 13 14 13 12 11 10 10 10 11 11 11 12 13 13 15 16 16 16 15 16 16 16 15 14 14 13 12 10 9 7 6 5 8
18 18 18 17 16 15 14 13 13 12 12 11 10 9 8 8 7 8 8 9 9 9 10 11 14 13 14 15 15 14 14 14 14 13 12 12 11 10 8 7 6 5 5 4
16 16 16 16 14 13 12 12 12 11 11 9 7 7 6 6 6 6 6 6 6 6 8 10 13 11 11 14 13 13 12 12 11 11 10 9 9 8 7 5 4 3 2 2
13 13 13 12 13 12 12 12 10 9 8 7 5 5 5 5 6 5 5 5 6 7 9 9 9 10 10 10 10 10 9 9 8 7 7 6 5 5 5 3 2 0 -0 -0
11 11 10 10 9 9 9 8 7 7 6 5 5 4 4 4 4 4 4 4 7 8 8 8 7 8 8 8 8 7 6 6 5 4 4 3 2 2 1 1 -0 -1 -2 -2
9 8 8 8 8 8 8 8 7 6 6 5 3 3 2 3 4 5 5 5 8 6 7 7 6 5 5 6 5 5 4 3 3 2 2 1 1 0 -1 -1 -2 -3 -4 -5
9 8 8 8 8 8 7 7 7 6 5 4 4 4 5 5 4 1 1 6 7 7 6 4 4 3 3 3 2 2 1 1 1 -0 -1 -1 -1 -2 -2 -2 -3 -5 -6 -6
9 9 8 8 8 8 8 8 7 7 7 8 8 6 6 5 6 9 6 5 4 5 5 4 2 2 2 1 1 -0 -1 -1 -2 -3 -3 -3 -4 -3 -4 -4 -3 -5 -5 -6
9 9 9 9 9 8 8 9 9 9 9 8 6 7 8 8 4 4 1 1 3 3 2 2 -0 -2 -1 -0 -0 -0 -1 -2 -3 -2 -3 -3 -3 -4 -4 -4 -5 -5 -6 -6
10 11 11 12 12 12 11 11 10 10 7 5 5 4 4 5 6 6 6 4 1 0 0 -1 -0 -0 -2 -2 -1 -1 -1 -1 -2 -3 -4 -4 -5 -5 -5 -5 -6 -6 -7 -7
14 14 14 13 13 13 13 13 11 9 7 3 3 4 5 5 3 3 2 2 2 2 1 0 -1 -1 -1 -1 -1 -2 -2 -3 -3 -3 -5 -5 -6 -6 -7 -7 -7 -8 -8 -8
Wind_Speed
2 6 6 10 15 14 15 18 13 11 20 24 16 5 2 2 12 17 21 26 26 25 24 22 21 18 5 7 10 12 13 14 14 14 15 16 16 16 16 17 18 19 19 18
3 8 2 10 16 19 21 23 21 20 21 13 12 3 4 6 10 13 17 21 23 24 24 21 26 19 17 16 11 10 12 12 12 13 14 17 17 18 17 17 17 17 19 21
4 3 10 13 3 7 9 8 5 10 11 20 8 9 6 9 13 14 16 21 24 23 22 23 24 21 16 21 18 22 20 18 14 4 10 14 16 17 18 19 19 20 20 19
3 4 4 6 18 5 7 4 10 15 20 5 14 16 21 18 12 17 18 20 20 18 20 22 20 18 20 21 19 19 19 18 17 15 13 13 10 5 14 17 20 21 21 21
1 3 12 13 4 5 9 15 7 6 12 13 15 17 18 16 17 17 17 16 16 17 18 18 19 15 17 16 16 18 18 18 16 16 15 14 14 14 14 14 8 12 13 16
1 2 4 7 5 15 12 7 20 8 11 10 17 3 6 13 15 17 16 16 16 17 16 20 18 17 17 18 18 19 18 16 15 15 16 15 14 14 13 12 12 11 18 21
9 6 8 7 15 11 4 6 13 13 2 11 8 7 10 12 14 14 17 20 15 17 16 16 15 14 15 16 17 15 15 16 18 17 15 16 14 14 15 14 15 17 18 18
3 5 8 16 4 3 4 15 16 19 17 21 17 16 13 12 11 15 18 17 17 16 17 17 17 15 15 17 14 14 16 17 18 17 17 17 17 16 17 15 16 16 15 15
7 4 9 11 12 11 13 13 16 19 18 15 19 15 13 11 13 19 17 16 15 13 13 16 17 16 16 16 13 13 15 16 17 18 16 17 18 17 16 17 15 15 15 15
7 7 12 11 13 15 14 16 15 16 15 14 17 13 11 13 16 15 16 16 15 14 15 16 16 16 15 15 12 12 13 14 14 17 20 20 18 19 17 15 14 14 13 14
2 8 6 17 13 11 15 14 17 18 16 14 13 13 12 14 12 13 13 14 15 14 13 15 16 17 17 16 12 11 12 12 12 12 14 21 26 22 21 24 17 15 15 14
5 12 6 9 12 12 15 14 15 15 14 16 14 12 11 13 13 12 13 14 14 13 14 15 15 16 18 16 13 10 10 10 10 10 11 13 14 19 32 31 32 31 27 20
4 5 9 11 13 13 14 12 15 16 15 14 14 12 14 14 12 13 14 15 15 15 15 15 15 16 17 16 13 13 11 11 10 11 11 10 11 12 14 17 30 30 29 27
12 6 4 15 8 13 12 12 14 15 15 14 13 13 13 12 13 14 15 14 14 15 17 16 17 19 18 17 15 16 15 16 12 11 11 12 12 12 12 12 13 13 20 22
10 10 7 9 12 13 12 11 13 14 12 13 14 13 12 13 14 13 12 12 13 16 17 16 17 19 17 15 14 14 11 11 11 12 13 13 12 13 13 13 13 12 11 15
2 9 8 11 11 12 13 14 12 11 11 12 13 12 11 12 12 12 14 15 16 16 16 16 16 16 14 12 11 11 12 13 13 11 12 12 11 12 12 12 12 13 14 13
4 6 8 8 10 12 12 11 10 10 10 11 11 9 9 10 12 13 13 13 13 14 14 16 15 15 13 13 11 10 10 11 12 12 12 11 11 12 11 12 13 14 14 14
8 7 7 7 7 9 10 11 10 10 10 10 11 12 13 12 11 10 10 10 12 15 18 16 14 14 14 13 11 11 11 11 12 12 11 12 12 12 12 12 12 12 12 15
7 8 9 10 11 10 10 11 10 10 9 10 13 14 12 11 10 10 10 13 14 14 16 14 14 13 14 14 12 10 10 11 11 11 11 12 13 12 12 13 13 13 12 13
9 9 9 10 11 10 10 9 10 12 10 11 12 12 12 11 9 9 10 14 12 8 10 13 12 13 13 13 13 10 11 11 11 11 11 12 12 13 13 13 13 13 13 12
7 8 9 11 12 12 11 9 11 11 10 11 12 12 12 12 13 12 13 13 14 13 12 13 13 10 10 10 11 11 11 11 12 11 11 12 13 13 13 13 12 12 12 11
8 10 11 11 12 11 8 9 10 9 8 8 7 7 7 7 8 10 10 7 7 11 9 10 9 12 11 12 10 11 11 12 11 11 12 11 12 12 12 11 12 11 11 11
9 8 8 9 10 9 7 8 7 8 8 6 7 7 7 6 5 6 6 8 7 9 8 10 11 13 13 12 12 12 13 13 12 12 11 11 10 10 10 10 9 9 9 8
7 7 7 7 7 6 7 4 6 6 5 4 3 2 3 4 4 4 4 4 7 9 9 9 10 11 12 11 11 11 11 10 10 10 9 9 8 8 8 7 8 5 4 4
8 8 7 6 4 3 5 6 4 4 4 4 5 5 5 3 3 3 6 7 7 7 8 8 9 9 9 9 9 10 9 7 7 7 7 7 6 6 5 4 3 2 1 1
8 8 8 7 7 7 8 7 6 6 4 3 2 2 4 4 3 3 3 3 5 5 6 6 6 5 6 6 5 5 5 5 4 3 3 3 3 2 2 2 2 2 2 3
5 6 6 3 2 2 0 5 7 7 6 5 3 1 1 2 2 3 4 4 3 2 2 3 3 4 4 3 2 2 2 2 2 2 2 2 1 1 2 3 3 4 4 5
Wind_Direction
335 301 269 271 277 275 257 259 272 280 301 291 309 265 318 7 24 21 18 35 36 39 40 38 40 40 118 143 166 167 177 194 195 189 193 193 197 199 203 198 203 204 205 209
306 308 251 292 287 284 264 256 255 260 283 312 249 127 95 34 57 60 34 39 40 37 38 31 38 20 36 42 25 165 182 196 200 199 194 198 204 207 201 204 205 206 210 212
277 297 326 291 191 321 315 228 228 255 276 309 230 144 60 62 77 60 47 38 38 35 31 27 29 19 16 44 43 60 59 51 40 21 214 207 200 202 210 212 209 211 214 216
284 327 264 258 318 218 316 264 238 273 282 120 103 80 59 45 64 61 47 45 38 26 29 25 17 21 24 34 41 50 49 42 29 20 26 21 28 255 229 217 214 217 218 220
309 269 290 308 23 21 345 303 345 91 107 128 120 81 53 42 41 54 54 52 45 35 29 29 11 13 37 36 38 46 46 43 31 21 24 23 22 8 1 0 323 250 220 218
157 275 276 278 331 330 321 279 355 131 141 99 2 96 62 43 34 38 43 51 52 44 35 32 7 16 28 28 30 37 33 33 35 31 31 23 17 14 4 10 18 11 58 50
240 255 273 329 327 314 273 318 12 23 22 87 53 71 81 59 47 45 46 39 31 46 43 28 16 28 37 29 35 35 38 35 34 32 32 26 21 19 23 35 48 54 59 51
214 234 263 354 337 17 83 34 42 50 50 82 92 85 70 63 53 57 48 40 29 31 32 24 18 23 32 26 22 37 42 43 40 39 38 28 31 28 29 38 50 53 61 54
221 256 69 40 83 66 78 71 48 55 58 68 81 63 56 43 42 43 36 36 35 36 34 23 18 20 25 9 19 42 51 50 42 41 40 41 40 37 39 38 46 47 50 50
326 42 74 71 60 59 62 69 61 55 61 66 75 70 56 44 38 35 31 29 25 27 29 23 17 18 19 11 22 43 52 55 53 52 49 46 46 44 47 48 53 58 58 59
279 12 342 34 52 57 55 61 68 61 53 53 67 61 59 50 40 37 31 30 31 28 27 25 16 16 14 14 24 51 54 57 58 62 66 67 58 50 53 50 56 65 61 62
13 342 71 38 44 53 59 54 59 65 55 50 58 61 67 59 46 39 33 33 31 27 29 23 20 19 11 14 27 45 58 57 53 61 68 71 73 68 52 55 58 59 61 67
355 15 58 63 47 58 66 61 61 65 60 56 47 54 59 59 48 42 39 35 27 26 26 21 22 23 13 15 31 47 56 57 54 57 64 72 69 71 76 55 55 56 59 61
20 356 62 45 43 40 58 68 69 66 60 62 61 55 55 57 50 40 33 29 34 29 25 20 21 19 9 18 35 46 50 50 55 59 69 70 69 70 70 70 64 57 51 62
33 29 59 74 56 50 48 53 57 55 58 64 61 62 59 60 55 45 32 36 40 39 25 18 21 16 10 17 34 44 53 59 64 69 70 72 70 68 66 65 60 51 43 43
4 46 66 62 56 45 45 42 53 47 59 63 64 63 66 68 62 51 43 41 44 33 19 18 19 7 15 24 37 45 49 59 65 66 68 68 67 71 71 70 68 62 54 38
31 20 11 48 47 49 50 52 53 55 58 60 57 61 71 70 60 48 39 38 39 36 27 19 14 5 17 25 40 43 51 55 63 65 63 64 68 70 70 71 71 66 56 45
55 52 52 56 60 59 53 54 60 61 62 69 73 72 70 67 63 50 38 33 38 35 24 10 15 13 17 27 35 45 52 56 59 63 63 65 67 66 66 67 64 66 58 48
68 68 63 65 70 80 79 71 71 78 81 87 87 81 77 69 63 55 46 48 38 32 9 3 14 20 22 25 36 39 54 63 65 63 66 70 69 67 71 73 72 68 64 60
51 48 58 61 55 65 78 76 83 76 73 86 88 77 68 52 52 56 58 55 33 13 1 11 17 24 23 30 43 47 56 61 67 68 70 74 76 77 77 79 81 79 76 74
80 75 74 76 69 61 66 77 80 71 61 64 67 61 58 49 46 46 45 41 11 11 19 22 24 18 24 34 44 53 63 68 71 74 79 81 82 81 84 87 87 87 84 83
116 112 110 108 103 94 85 98 102 101 93 86 84 81 72 58 57 60 49 44 8 27 28 28 29 37 44 47 47 54 62 66 68 70 73 77 86 91 91 94 97 94 91 86
130 126 122 119 113 109 99 92 98 104 99 100 101 100 90 78 71 68 52 17 30 40 43 41 44 48 51 53 57 62 67 70 72 75 76 79 86 93 97 99 102 104 95 84
132 131 129 130 127 116 113 103 101 101 104 103 93 146 117 102 63 48 77 61 54 54 50 51 55 59 61 63 66 70 73 77 82 82 78 75 77 87 91 98 102 98 89 83
149 149 151 161 181 192 172 171 155 140 111 84 65 62 64 66 108 111 80 67 65 65 55 44 59 64 67 70 72 71 69 74 78 83 82 82 78 82 86 89 99 94 62 32
171 188 204 226 248 230 213 207 216 186 160 140 105 65 65 55 78 87 80 66 71 69 61 44 44 53 58 58 62 63 59 56 62 70 82 87 87 77 50 13 342 332 320 299
152 145 148 130 49 44 211 220 211 195 184 180 168 8 29 78 69 57 38 31 20 346 348 18 20 17 5 356 337 338 347 347 352 330 282 247 247 281 314 314 306 294 281 271